Location: *
(40.7190°N, 4.2480°W)
Time: 06:15:16
(UTC+00:00)

PSLV R/B - Pass Details

Date: 18 February 2020
Orbit: 505 x 578 km, 97.8° (Epoch: 09 April)

Event Time Altitude Azimuth Distance (km) Brightness Sun altitude
Rises 05:18:28 0° 15° (NNE) 2,626 7.5 -21.4°
Reaches altitude 10° 05:20:34 10° 19° (NNE) 1,742 6.6 -21.0°
Maximum altitude 05:24:17 64° 102° (ESE) 576 4.1 -20.3°
Drops below altitude 10° 05:28:03 10° 184° (S) 1,760 6.3 -19.6°
Sets 05:30:10 0° 187° (S) 2,656 7.2 -19.2°
